Kosmos-945

operational
NORAD ID: 10291 Int'l Des: 1977-079 Owner: GUKOSR Country: SU
LEOCIRCULAR

About Kosmos-945

Description loading...

Live Position

Loading 3D Globe...

Upcoming Passes

Altitude History

Altitude vs Time

uPlot chart will show altitude changes over time

Two-Line Element Set

1 10291U 77079G 25278.44000454 -.00000019 00000-0 -23675-4 0 9997
2 10291 74.0242 61.0430 0018727 279.6808 136.4210 12.47245083169361
Epoch: Oct 5, 2025 • Age: 8 hours

Current Status

Altitude 1481.3 km
Velocity 7.12 km/s
Sub-Earth Point 3.70°N, 58.7°W
Launch Date Aug 24, 1977
Age 48.1 years
Type other

Technical Details

Classification Payload
Mass 60.00 kg
Dry Mass 60.00 kg
Total Mass 60.00 kg
Length 0.80 m
Diameter 0.80 m
Span 0.80 m
Shape Poly
Manufacturer NPOPM
Bus Type Strela-1 11F625
Phase Status In Orbit
Owner/State GUKOSR/SU

Large Constellations

Loading constellations...